Total_Precipitation_Accumulation
0.94 0.91 0.83 0.77 0.75 0.73 0.71 0.67 0.63 0.58 0.55 0.51 0.48 0.45 0.42 0.42 0.48 0.56 0.60 0.59 0.60 0.60 0.60 0.62 0.66 0.70 0.79 0.79 0.81 0.87 1.00 1.17 1.28 1.11 0.93 0.86 0.84 0.85 0.86 0.82 0.73 0.63 0.59
0.84 0.79 0.71 0.65 0.62 0.59 0.57 0.51 0.46 0.45 0.46 0.44 0.42 0.40 0.37 0.38 0.44 0.49 0.51 0.50 0.53 0.55 0.55 0.54 0.56 0.62 0.70 0.72 0.75 0.79 0.87 1.00 1.11 1.12 0.99 0.87 0.80 0.80 0.79 0.78 0.60 0.49 0.47
0.79 0.79 0.74 0.66 0.59 0.55 0.55 0.51 0.45 0.45 0.45 0.43 0.42 0.40 0.38 0.36 0.38 0.39 0.40 0.45 0.48 0.50 0.48 0.47 0.50 0.55 0.60 0.61 0.67 0.73 0.78 0.83 0.94 0.96 0.86 0.77 0.68 0.63 0.73 0.76 0.68 0.63 0.42
0.76 0.81 0.79 0.73 0.66 0.61 0.57 0.58 0.52 0.48 0.46 0.42 0.40 0.38 0.36 0.32 0.33 0.36 0.34 0.37 0.44 0.43 0.38 0.40 0.44 0.45 0.47 0.53 0.57 0.67 0.76 0.84 0.88 0.87 0.78 0.67 0.64 0.63 0.77 0.87 0.80 0.67 0.53
0.72 0.72 0.68 0.64 0.64 0.60 0.56 0.56 0.54 0.48 0.44 0.43 0.39 0.39 0.35 0.32 0.31 0.33 0.31 0.31 0.39 0.39 0.37 0.37 0.37 0.36 0.38 0.42 0.46 0.55 0.70 0.84 0.89 0.92 0.84 0.72 0.69 0.79 0.85 0.82 0.78 0.66 0.54
0.67 0.67 0.62 0.56 0.54 0.51 0.50 0.47 0.45 0.43 0.42 0.42 0.44 0.41 0.36 0.33 0.36 0.34 0.27 0.30 0.35 0.38 0.41 0.38 0.35 0.32 0.31 0.32 0.35 0.42 0.55 0.72 0.88 0.99 0.93 0.86 0.80 0.87 0.94 0.89 0.92 0.89 0.77
0.71 0.66 0.62 0.59 0.56 0.49 0.45 0.45 0.44 0.46 0.45 0.45 0.44 0.43 0.41 0.37 0.33 0.29 0.24 0.26 0.33 0.44 0.49 0.47 0.38 0.33 0.40 0.42 0.38 0.35 0.41 0.51 0.73 0.98 1.09 1.00 0.92 0.99 1.11 1.09 1.06 1.05 0.96
0.70 0.64 0.59 0.57 0.56 0.51 0.50 0.51 0.46 0.46 0.47 0.50 0.49 0.45 0.46 0.40 0.35 0.31 0.28 0.32 0.36 0.43 0.48 0.47 0.52 0.52 0.45 0.43 0.39 0.43 0.52 0.62 0.69 0.77 0.96 0.97 0.86 0.87 1.01 1.05 1.01 0.98 0.93
0.62 0.56 0.54 0.52 0.54 0.53 0.53 0.51 0.47 0.49 0.52 0.55 0.51 0.50 0.52 0.48 0.40 0.37 0.39 0.45 0.42 0.42 0.41 0.40 0.46 0.49 0.42 0.40 0.43 0.53 0.61 0.67 0.58 0.68 0.77 0.87 0.91 0.85 0.82 0.86 1.02 1.11 1.12
0.53 0.46 0.44 0.48 0.50 0.49 0.49 0.51 0.50 0.53 0.57 0.55 0.53 0.53 0.52 0.47 0.35 0.34 0.38 0.42 0.43 0.40 0.43 0.44 0.42 0.38 0.37 0.38 0.44 0.57 0.68 0.69 0.75 0.91 1.08 1.17 1.13 1.03 0.87 0.90 1.11 1.24 1.26
0.44 0.41 0.43 0.49 0.53 0.49 0.48 0.52 0.54 0.54 0.59 0.59 0.52 0.47 0.44 0.37 0.30 0.27 0.27 0.31 0.37 0.39 0.45 0.52 0.50 0.40 0.37 0.35 0.41 0.54 0.65 0.71 0.97 1.29 1.35 1.25 1.16 1.08 0.97 0.91 0.99 1.10 1.23
0.45 0.44 0.46 0.48 0.40 0.38 0.52 0.56 0.53 0.58 0.62 0.55 0.48 0.45 0.40 0.34 0.25 0.19 0.19 0.23 0.29 0.38 0.54 0.53 0.49 0.44 0.37 0.37 0.44 0.60 0.68 0.88 1.18 1.39 1.31 1.12 0.99 0.91 0.85 0.81 0.82 0.87 1.00
0.57 0.56 0.52 0.51 0.49 0.51 0.56 0.54 0.52 0.53 0.49 0.39 0.36 0.35 0.33 0.33 0.28 0.18 0.16 0.20 0.26 0.32 0.47 0.51 0.49 0.47 0.46 0.59 0.67 0.78 0.88 1.08 1.28 1.27 1.13 1.00 0.90 0.82 0.74 0.74 0.72 0.75 0.78
0.65 0.60 0.54 0.54 0.58 0.57 0.52 0.42 0.39 0.36 0.34 0.34 0.32 0.31 0.30 0.29 0.23 0.18 0.17 0.22 0.28 0.32 0.41 0.54 0.64 0.68 0.70 0.80 0.89 1.00 1.09 1.17 1.14 1.04 0.92 0.85 0.78 0.76 0.74 0.71 0.72 0.73 0.79
0.65 0.61 0.54 0.47 0.48 0.50 0.40 0.28 0.27 0.25 0.22 0.26 0.27 0.25 0.27 0.25 0.18 0.18 0.19 0.22 0.30 0.36 0.41 0.59 0.80 0.87 0.91 0.95 0.95 1.01 1.08 1.05 1.02 0.96 0.89 0.80 0.74 0.74 0.75 0.74 0.77 0.74 0.76
0.56 0.54 0.47 0.38 0.34 0.30 0.28 0.28 0.21 0.18 0.19 0.20 0.23 0.21 0.17 0.16 0.15 0.15 0.19 0.24 0.32 0.41 0.47 0.68 0.87 0.93 0.94 0.96 0.93 0.94 0.97 0.94 0.88 0.86 0.86 0.82 0.78 0.75 0.76 0.78 0.80 0.77 0.78
0.48 0.44 0.32 0.24 0.22 0.22 0.24 0.32 0.34 0.25 0.17 0.15 0.15 0.15 0.15 0.15 0.14 0.15 0.19 0.25 0.32 0.40 0.49 0.68 0.87 1.00 1.01 0.93 0.87 0.86 0.91 0.92 0.88 0.86 0.82 0.81 0.76 0.72 0.73 0.74 0.72 0.70 0.72
0.34 0.27 0.20 0.19 0.16 0.15 0.15 0.20 0.30 0.36 0.31 0.24 0.17 0.14 0.14 0.14 0.15 0.15 0.19 0.24 0.34 0.41 0.52 0.68 0.81 0.88 0.91 0.91 0.85 0.82 0.84 0.86 0.85 0.80 0.76 0.75 0.73 0.70 0.67 0.69 0.67 0.61 0.59
0.23 0.20 0.17 0.14 0.12 0.11 0.12 0.13 0.17 0.21 0.26 0.27 0.25 0.18 0.15 0.16 0.20 0.22 0.23 0.27 0.36 0.42 0.51 0.61 0.69 0.70 0.68 0.69 0.68 0.68 0.72 0.77 0.75 0.68 0.66 0.69 0.70 0.68 0.65 0.61 0.56 0.47 0.48
0.15 0.11 0.10 0.09 0.10 0.10 0.09 0.10 0.12 0.15 0.20 0.24 0.24 0.20 0.18 0.26 0.34 0.34 0.29 0.28 0.30 0.35 0.42 0.51 0.58 0.55 0.53 0.52 0.50 0.51 0.53 0.56 0.56 0.55 0.55 0.55 0.57 0.58 0.55 0.50 0.46 0.44 0.45
0.08 0.07 0.07 0.07 0.08 0.09 0.08 0.07 0.08 0.10 0.14 0.19 0.18 0.14 0.19 0.28 0.36 0.39 0.39 0.38 0.37 0.37 0.38 0.39 0.43 0.46 0.47 0.46 0.43 0.40 0.40 0.42 0.44 0.47 0.48 0.49 0.50 0.49 0.44 0.41 0.39 0.35 0.34
0.05 0.05 0.04 0.05 0.06 0.06 0.05 0.04 0.05 0.06 0.11 0.14 0.15 0.13 0.19 0.24 0.30 0.33 0.39 0.45 0.45 0.43 0.40 0.38 0.39 0.43 0.48 0.48 0.42 0.38 0.38 0.39 0.40 0.44 0.46 0.46 0.44 0.39 0.35 0.34 0.32 0.32 0.31
0.02 0.02 0.02 0.02 0.02 0.02 0.03 0.03 0.04 0.05 0.08 0.10 0.11 0.13 0.17 0.23 0.26 0.29 0.35 0.41 0.46 0.45 0.41 0.39 0.40 0.43 0.45 0.46 0.43 0.37 0.34 0.33 0.34 0.36 0.41 0.43 0.40 0.36 0.32 0.31 0.29 0.30 0.31
0.02 0.02 0.02 0.01 0.01 0.01 0.02 0.02 0.03 0.04 0.05 0.06 0.08 0.12 0.16 0.21 0.23 0.26 0.31 0.36 0.42 0.45 0.43 0.42 0.41 0.41 0.41 0.42 0.39 0.30 0.27 0.27 0.26 0.27 0.32 0.35 0.33 0.30 0.26 0.26 0.27 0.28 0.30
0.02 0.02 0.01 0.01 0.01 0.01 0.02 0.02 0.03 0.04 0.04 0.05 0.07 0.10 0.11 0.14 0.18 0.20 0.24 0.30 0.35 0.39 0.39 0.38 0.38 0.35 0.32 0.32 0.30 0.25 0.23 0.24 0.24 0.24 0.26 0.28 0.26 0.26 0.26 0.26 0.25 0.26 0.28
0.01 0.02 0.02 0.01 0.01 0.02 0.03 0.03 0.04 0.05 0.06 0.06 0.07 0.07 0.08 0.10 0.13 0.15 0.17 0.19 0.24 0.28 0.31 0.32 0.31 0.28 0.25 0.22 0.22 0.23 0.22 0.20 0.20 0.21 0.25 0.28 0.27 0.27 0.28 0.28 0.26 0.29 0.32